"Gas Day","BTU","CHDP","Wobbe Index","CO2","N2","Gravity","Methane","Ethane","Propane","Ibutane","Nbutane","Ipentane","Npentane","C6+"
"2024-05-03 00:00:00.0","1015.2860","-27.8158","1329.5660","1.6625","0.0864","0.5831","96.2843","1.6638","0.1876","0.0541","0.0298","0.0130","0.0052","0.0135"
"2024-05-02 00:00:00.0","1014.9150","-28.4652","1328.7208","1.6876","0.0984","0.5834","96.2424","1.6761","0.1840","0.0531","0.0288","0.0127","0.0047","0.0133"
"2024-05-01 00:00:00.0","1015.5472","-28.2906","1329.2682","1.6809","0.0972","0.5837","96.1738","1.7417","0.1905","0.0545","0.0294","0.0127","0.0047","0.0133"
"2024-04-30 00:00:00.0","1015.6065","-28.0486","1328.8367","1.7014","0.1033","0.5841","96.1197","1.7704","0.1921","0.0551","0.0295","0.0126","0.0046","0.0135"
"2024-04-29 00:00:00.0","1016.4074","-26.1291","1329.7094","1.6786","0.1042","0.5843","96.0811","1.8173","0.2005","0.0557","0.0302","0.0136","0.0046","0.0146"
"2024-04-28 00:00:00.0","1016.2988","-27.2167","1329.3973","1.6921","0.1042","0.5844","96.0682","1.8180","0.1953","0.0565","0.0310","0.0145","0.0071","0.0138"
"2024-04-27 00:00:00.0","1016.3141","-26.9186","1329.3906","1.6928","0.1045","0.5845","96.0584","1.8287","0.1968","0.0568","0.0303","0.0136","0.0051","0.0141"
"2024-04-26 00:00:00.0","1016.1226","-27.3791","1329.3504","1.6844","0.1113","0.5843","96.0703","1.8239","0.1923","0.0550","0.0297","0.0131","0.0050","0.0139"
"2024-04-25 00:00:00.0","1016.4361","-28.1404","1329.5810","1.6775","0.1186","0.5844","96.0274","1.8633","0.1958","0.0549","0.0301","0.0130","0.0049","0.0133"
"2024-04-24 00:00:00.0","1015.4479","-28.2841","1328.3985","1.7094","0.1207","0.5844","96.0558","1.8106","0.1886","0.0528","0.0288","0.0124","0.0047","0.0133"
"2024-04-23 00:00:00.0","1015.2101","-26.3439","1328.4822","1.7248","0.0843","0.5841","96.1395","1.7473","0.1884","0.0538","0.0295","0.0130","0.0050","0.0144"
"2024-04-22 00:00:00.0","1015.2638","-26.9568","1328.1139","1.7385","0.0981","0.5846","96.0626","1.7963","0.1895","0.0541","0.0293","0.0128","0.0047","0.0141"
"2024-04-21 00:00:00.0","1016.3415","-23.8901","1328.8464","1.7311","0.0923","0.5850","96.0363","1.8050","0.2001","0.0595","0.0349","0.0151","0.0100","0.0158"
"2024-04-20 00:00:00.0","1015.2384","-28.3112","1328.5311","1.7306","0.0662","0.5840","96.1644","1.7442","0.1830","0.0527","0.0284","0.0125","0.0047","0.0133"
"2024-04-19 00:00:00.0","1015.5171","-28.4667","1328.8188","1.7212","0.0700","0.5841","96.1387","1.7677","0.1863","0.0534","0.0288","0.0127","0.0047","0.0133"
"2024-04-18 00:00:00.0","1015.8124","-26.3788","1328.7426","1.7410","0.0608","0.5844","96.1028","1.7897","0.1918","0.0550","0.0295","0.0130","0.0048","0.0138"
"2024-04-17 00:00:00.0","1014.5024","-26.8296","1327.8389","1.7454","0.0650","0.5837","96.2322","1.6594","0.1839","0.0536","0.0287","0.0126","0.0046","0.0135"
"2024-04-16 00:00:00.0","1015.2545","-27.3546","1327.9977","1.7574","0.0718","0.5845","96.1070","1.7584","0.1901","0.0552","0.0295","0.0133","0.0050","0.0139"
"2024-04-15 00:00:00.0","1015.5514","-27.6269","1328.7239","1.7255","0.0756","0.5842","96.1205","1.7761","0.1879","0.0542","0.0291","0.0129","0.0048","0.0136"
"2024-04-14 00:00:00.0","1015.9409","-26.7910","1328.7388","1.7359","0.0751","0.5846","96.0691","1.8106","0.1927","0.0556","0.0299","0.0133","0.0050","0.0141"
"2024-04-13 00:00:00.0","1016.0642","-26.8900","1329.0598","1.7252","0.0706","0.5845","96.0843","1.8095","0.1928","0.0556","0.0299","0.0132","0.0049","0.0141"
"2024-04-12 00:00:00.0","1015.9678","-27.3192","1329.1645","1.7111","0.0798","0.5843","96.0986","1.8073","0.1897","0.0542","0.0292","0.0128","0.0047","0.0139"
"2024-04-11 00:00:00.0","1016.1071","-27.0069","1329.0605","1.7205","0.0794","0.5845","96.0564","1.8293","0.1929","0.0551","0.0293","0.0133","0.0051","0.0141"
"2024-04-10 00:00:00.0","1015.9528","-24.6603","1328.4858","1.7368","0.0949","0.5848","96.0392","1.8085","0.1958","0.0548","0.0314","0.0158","0.0071","0.0155"
"2024-04-09 00:00:00.0","1015.7956","-23.7014","1328.1663","1.7606","0.0801","0.5850","96.0334","1.8040","0.1938","0.0561","0.0321","0.0159","0.0085","0.0146"
"2024-04-08 00:00:00.0","1014.4161","-28.0178","1327.3781","1.7571","0.0866","0.5842","96.1533","1.7149","0.1769","0.0517","0.0286","0.0138","0.0063","0.0128"
"2024-04-07 00:00:00.0","1014.4686","-28.5653","1327.6281","1.7406","0.0902","0.5839","96.1728","1.7059","0.1806","0.0514","0.0277","0.0123","0.0046","0.0133"
"2024-04-06 00:00:00.0","1014.4889","-29.1266","1327.9737","1.7242","0.0862","0.5836","96.2201","1.6849","0.1790","0.0508","0.0273","0.0119","0.0044","0.0129"
"2024-04-05 00:00:00.0","1014.6573","-28.8040","1328.2051","1.7218","0.0784","0.5836","96.2238","1.6795","0.1843","0.0524","0.0280","0.0120","0.0044","0.0130"
"2024-04-04 00:00:00.0","1014.6836","-27.1873","1327.9610","1.7328","0.0834","0.5838","96.2167","1.6648","0.1898","0.0542","0.0296","0.0130","0.0050","0.0139"
"2024-04-03 00:00:00.0","1014.3641","-29.9238","1328.7264","1.6735","0.0955","0.5828","96.3134","1.6335","0.1762","0.0502","0.0266","0.0119","0.0045","0.0124"
"2024-04-02 00:00:00.0","1013.5920","-30.2324","1327.8258","1.6994","0.0922","0.5827","96.3574","1.5663","0.1740","0.0500","0.0267","0.0121","0.0048","0.0124"
"2024-04-01 00:00:00.0","1012.9900","-27.9678","1325.3619","1.8052","0.1069","0.5842","96.1793","1.6208","0.1796","0.0513","0.0276","0.0122","0.0046","0.0129"
"2024-03-31 00:00:00.0","1011.4478","-32.3896","1324.3945","1.8152","0.0970","0.5832","96.3336","1.4958","0.1622","0.0462","0.0247","0.0106","0.0040","0.0112"
"2024-03-30 00:00:00.0","1011.6450","-31.7355","1324.5377","1.8126","0.0986","0.5834","96.3146","1.5123","0.1641","0.0465","0.0250","0.0107","0.0040","0.0116"
"2024-03-29 00:00:00.0","1012.0973","-30.5649","1324.9768","1.8113","0.0860","0.5835","96.3017","1.5325","0.1681","0.0480","0.0257","0.0111","0.0042","0.0122"
"2024-03-28 00:00:00.0","1012.2194","-30.2615","1325.2648","1.7986","0.0876","0.5834","96.3204","1.5244","0.1696","0.0483","0.0261","0.0111","0.0042","0.0123"
"2024-03-27 00:00:00.0","1012.1620","-30.6779","1325.8045","1.7671","0.0902","0.5829","96.3731","1.5059","0.1652","0.0470","0.0252","0.0108","0.0041","0.0121"
"2024-03-26 00:00:00.0","1012.7636","-29.7060","1326.3250","1.7623","0.0807","0.5831","96.3527","1.5278","0.1726","0.0493","0.0266","0.0113","0.0043","0.0127"
"2024-03-25 00:00:00.0","1012.0755","-31.1025","1325.3954","1.7924","0.0775","0.5831","96.3861","1.4742","0.1640","0.0481","0.0271","0.0124","0.0081","0.0116"
"2024-03-24 00:00:00.0","1012.0450","-30.4799","1325.9140","1.7716","0.0662","0.5826","96.4429","1.4545","0.1650","0.0475","0.0255","0.0110","0.0042","0.0122"
"2024-03-23 00:00:00.0","1011.8571","-31.1230","1325.9097","1.7679","0.0629","0.5824","96.4738","1.4325","0.1631","0.0469","0.0251","0.0109","0.0041","0.0118"
"2024-03-22 00:00:00.0","1012.2225","-31.0004","1326.5717","1.7413","0.0679","0.5823","96.4746","1.4500","0.1635","0.0470","0.0262","0.0116","0.0042","0.0120"
"2024-03-21 00:00:00.0","1011.9800","-31.2285","1326.2353","1.7548","0.0626","0.5823","96.4838","1.4360","0.1627","0.0468","0.0251","0.0107","0.0040","0.0118"
"2024-03-20 00:00:00.0","1012.0635","-30.4048","1325.8195","1.7731","0.0728","0.5827","96.4204","1.4687","0.1654","0.0474","0.0255","0.0109","0.0041","0.0122"
"2024-03-19 00:00:00.0","1011.9223","-29.2521","1325.4647","1.7866","0.0732","0.5828","96.4118","1.4624","0.1647","0.0470","0.0257","0.0110","0.0042","0.0130"
"2024-03-18 00:00:00.0","1011.9218","-30.5183","1325.3590","1.7955","0.0710","0.5830","96.3964","1.4714","0.1667","0.0480","0.0256","0.0112","0.0043","0.0122"
"2024-03-17 00:00:00.0","1012.2844","-30.6315","1325.9167","1.7742","0.0709","0.5828","96.4124","1.4678","0.1663","0.0487","0.0270","0.0117","0.0074","0.0120"
"2024-03-16 00:00:00.0","1012.0458","-30.7963","1325.5192","1.7940","0.0647","0.5830","96.3969","1.4737","0.1665","0.0480","0.0258","0.0116","0.0055","0.0119"
"2024-03-15 00:00:00.0","1012.4031","-29.7849","1325.6162","1.8046","0.0595","0.5833","96.3491","1.5030","0.1732","0.0500","0.0275","0.0127","0.0054","0.0124"
"2024-03-14 00:00:00.0","1011.8357","-31.6996","1325.1450","1.7974","0.0795","0.5830","96.3841","1.4782","0.1650","0.0472","0.0251","0.0109","0.0042","0.0116"
"2024-03-13 00:00:00.0","1011.3607","-32.9160","1324.8032","1.7975","0.0855","0.5828","96.4047","1.4585","0.1595","0.0453","0.0240","0.0103","0.0039","0.0110"
"2024-03-12 00:00:00.0","1011.0531","-33.2945","1324.6981","1.7914","0.0890","0.5825","96.4373","1.4368","0.1545","0.0438","0.0231","0.0098","0.0037","0.0108"
"2024-03-11 00:00:00.0","1010.4745","-33.5397","1323.7341","1.8274","0.0858","0.5827","96.4324","1.4100","0.1531","0.0436","0.0231","0.0097","0.0036","0.0107"
"2024-03-10 00:00:00.0","1010.3751","-31.8374","1323.1869","1.8567","0.0837","0.5831","96.3862","1.4249","0.1560","0.0445","0.0235","0.0099","0.0037","0.0109"
"2024-03-09 00:00:00.0","1010.5686","-31.3208","1323.1240","1.8767","0.0662","0.5833","96.3716","1.4319","0.1594","0.0458","0.0239","0.0104","0.0039","0.0111"
"2024-03-08 00:00:00.0","1010.0733","-33.5156","1322.8534","1.8781","0.0635","0.5830","96.4243","1.3880","0.1531","0.0440","0.0239","0.0104","0.0043","0.0106"
"2024-03-07 00:00:00.0","1012.0433","-35.6285","1327.3097","1.6928","0.0706","0.5814","96.5794","1.4095","0.1564","0.0444","0.0235","0.0101","0.0036","0.0097"
"2024-03-06 00:00:00.0","1012.5863","-20.8769","1327.8155","1.6851","0.0740","0.5817","96.5392","1.4593","0.1601","0.0454","0.0238","0.0104","0.0038","0.0103"
"2024-03-05 00:00:00.0","1012.1533","0.0000","1325.9023","1.7718","0.0760","0.5828","96.3725","1.5259","0.1598","0.0452","0.0233","0.0107","0.0041","0.0108"
"2024-03-04 00:00:00.0","1011.4916","-35.6552","1325.6874","1.7672","0.0650","0.5822","96.4793","1.4501","0.1503","0.0426","0.0221","0.0101","0.0035","0.0097"
"2024-03-03 00:00:00.0","1011.0216","-35.2810","1325.0608","1.7863","0.0660","0.5822","96.5121","1.4146","0.1463","0.0416","0.0215","0.0094","0.0036","0.0099"
"2024-03-02 00:00:00.0","1011.1166","-35.4965","1325.1881","1.7820","0.0657","0.5822","96.4836","1.4358","0.1472","0.0418","0.0215","0.0091","0.0034","0.0098"
"2024-03-01 00:00:00.0","1011.6943","-33.3114","1325.3836","1.7908","0.0663","0.5827","96.4702","1.4528","0.1539","0.0441","0.0233","0.0101","0.0038","0.0108"
"2024-02-29 00:00:00.0","1010.7150","-34.5726","1324.1257","1.8249","0.0690","0.5826","96.4322","1.4397","0.1478","0.0417","0.0219","0.0092","0.0034","0.0102"
"2024-02-28 00:00:00.0","1010.2603","-36.6454","1323.9420","1.8199","0.0672","0.5823","96.4274","1.4235","0.1467","0.0413","0.0216","0.0089","0.0032","0.0093"
"2024-02-27 00:00:00.0","1011.3948","-31.6600","1324.9805","1.8039","0.0630","0.5827","96.4273","1.4605","0.1534","0.0437","0.0231","0.0099","0.0036","0.0116"
"2024-02-26 00:00:00.0","1011.5203","-32.0341","1325.0107","1.8046","0.0655","0.5828","96.4090","1.4712","0.1562","0.0446","0.0237","0.0100","0.0037","0.0114"
"2024-02-25 00:00:00.0","1012.6625","-29.8780","1325.5571","1.8161","0.0597","0.5836","96.3232","1.5518","0.1678","0.0479","0.0255","0.0110","0.0041","0.0125"
"2024-02-24 00:00:00.0","1010.5114","-34.5327","1323.8982","1.8324","0.0666","0.5826","96.4444","1.4240","0.1470","0.0414","0.0217","0.0090","0.0033","0.0103"
"2024-02-23 00:00:00.0","1011.9114","-32.2618","1325.9000","1.7679","0.0667","0.5825","96.4379","1.4779","0.1584","0.0434","0.0231","0.0098","0.0037","0.0113"
"2024-02-22 00:00:00.0","1011.1130","-33.7866","1324.4082","1.8244","0.0671","0.5828","96.4295","1.4578","0.1517","0.0416","0.0218","0.0090","0.0033","0.0105"
"2024-02-21 00:00:00.0","1011.4947","-34.9167","1324.9472","1.8060","0.0686","0.5828","96.4151","1.4806","0.1524","0.0432","0.0220","0.0103","0.0039","0.0099"
"2024-02-20 00:00:00.0","1010.8793","-35.0391","1324.2829","1.8250","0.0638","0.5827","96.4253","1.4496","0.1490","0.0422","0.0223","0.0095","0.0035","0.0099"
"2024-02-19 00:00:00.0","1010.8793","-35.0391","1324.2829","1.8250","0.0638","0.5827","96.4253","1.4496","0.1490","0.0422","0.0223","0.0095","0.0035","0.0099"
"2024-02-18 00:00:00.0","1009.8949","-36.3529","1322.8696","1.8747","0.0576","0.5828","96.4369","1.4034","0.1445","0.0404","0.0211","0.0087","0.0032","0.0094"
"2024-02-17 00:00:00.0","1011.5619","-33.0365","1325.1359","1.8084","0.0513","0.5827","96.4369","1.4442","0.1648","0.0451","0.0246","0.0101","0.0038","0.0109"
"2024-02-16 00:00:00.0","1011.5267","-31.6846","1324.5417","1.8341","0.0608","0.5832","96.3840","1.4756","0.1621","0.0448","0.0240","0.0101","0.0038","0.0116"
"2024-02-15 00:00:00.0","1011.9168","-31.2482","1325.6301","1.7877","0.0598","0.5827","96.4563","1.4433","0.1648","0.0461","0.0258","0.0110","0.0042","0.0118"
"2024-02-14 00:00:00.0","1012.1560","-29.5404","1325.8461","1.7864","0.0546","0.5828","96.4311","1.4553","0.1697","0.0474","0.0268","0.0116","0.0044","0.0127"
"2024-02-13 00:00:00.0","1011.9676","-31.4165","1325.5334","1.7962","0.0564","0.5828","96.4068","1.4744","0.1667","0.0466","0.0248","0.0106","0.0039","0.0118"
"2024-02-12 00:00:00.0","1011.3525","-33.4709","1324.8972","1.8129","0.0541","0.5827","96.4322","1.4506","0.1562","0.0452","0.0222","0.0108","0.0037","0.0107"
"2024-02-11 00:00:00.0","1012.8453","-32.3213","1325.5718","1.8215","0.0570","0.5838","96.2704","1.5712","0.1602","0.0490","0.0303","0.0133","0.0134","0.0108"
"2024-02-10 00:00:00.0","1011.9564","-32.0416","1325.2279","1.8095","0.0600","0.5831","96.3287","1.5303","0.1609","0.0459","0.0244","0.0104","0.0038","0.0114"
"2024-02-09 00:00:00.0","1013.1131","-28.5445","1325.7559","1.8175","0.0613","0.5840","96.2320","1.6086","0.1739","0.0500","0.0272","0.0118","0.0045","0.0133"
"2024-02-08 00:00:00.0","1012.6814","-30.1479","1325.7516","1.8041","0.0611","0.5835","96.2985","1.5674","0.1672","0.0478","0.0258","0.0112","0.0042","0.0124"
"2024-02-07 00:00:00.0","1012.2093","0.0000","1326.9503","1.7370","0.0590","0.5823","96.4488","1.5013","0.1593","0.0455","0.0240","0.0101","0.0037","0.0116"
"2024-02-06 00:00:00.0","1012.2093","0.0000","1326.9503","1.7370","0.0590","0.5823","96.4488","1.5013","0.1593","0.0455","0.0240","0.0101","0.0037","0.0116"
"2024-02-05 00:00:00.0","1012.2093","0.0000","1326.9503","1.7370","0.0590","0.5823","96.4488","1.5013","0.1593","0.0455","0.0240","0.0101","0.0037","0.0116"
"2024-02-04 00:00:00.0","1012.2093","0.0000","1326.9503","1.7370","0.0590","0.5823","96.4488","1.5013","0.1593","0.0455","0.0240","0.0101","0.0037","0.0116"
